Terminal Aerodrome Forecast
Issued by NWS Houston/Galveston TX

Home | Current Version | Previous Version | Text Only | Print | Product List | Glossary On
Versions: 1 2 3 4 5 6 7 8 9 10 11 12 13 14 15 16 17 18 19 20 21 22 23 24 25 26 27 28 29 30 31 32 33 34 35 36 37 38 39 40 41 42 43 44 45 46 47 48 49 50
000
FTUS44 KHGX 041137
TAFHOU
TAF
KHOU 041137Z 0412/0512 17004KT P6SM FEW026 SCT250
     FM041600 20007KT P6SM SCT030 BKN250
     FM041800 19008KT P6SM VCTS BKN040CB BKN250
      TEMPO 0418/0421 VRB10G25KT TSRA
     FM042200 17008KT P6SM SCT035 SCT110 BKN250
     FM050400 17004KT P6SM FEW025 BKN250=

USA.gov is the U.S. government's official web portal to all federal, state and local government web resources and services.